"read_dt","SO2 (ppb)","flags","PMT voltage (V)","lamp voltage (V)","lamp intensity (Hz)","internal temp (C)","react chamber temp (C)","sample flow (l/min)","pres (mmHg)","SO2 bkg (ppb)","SO2 coefficient"
2016-06-05 00:00:00,2144E-3,5C000400,-0724,0830,12220,029.4,045.5,0.253,755.1,01.16,0.508
2016-06-05 00:01:00,2334E-3,5C000400,-0724,0830,12068,029.4,045.5,0.253,755.1,01.16,0.508
2016-06-05 00:02:00,2043E-3,5C000400,-0724,0830,12174,029.4,045.5,0.253,755.2,01.16,0.508
2016-06-05 00:03:00,2032E-3,5C000400,-0724,0830,12340,029.4,045.5,0.253,755.2,01.16,0.508
2016-06-05 00:04:00,2242E-3,5C000400,-0724,0829,12138,029.4,045.5,0.252,755.2,01.16,0.508
2016-06-05 00:05:00,2064E-3,5C000400,-0724,0830,12104,029.4,045.5,0.252,755.2,01.16,0.508
2016-06-05 00:06:00,2190E-3,5C000400,-0724,0830,12196,029.4,045.5,0.252,755.2,01.16,0.508
2016-06-05 00:07:00,2217E-3,5C000400,-0724,0829,12140,029.4,045.5,0.252,755.2,01.16,0.508
2016-06-05 00:08:00,2075E-3,5C000400,-0724,0830,12250,029.4,045.5,0.252,755.2,01.16,0.508
2016-06-05 00:09:00,2176E-3,5C000400,-0724,0829,12273,029.4,045.5,0.253,755.2,01.16,0.508
2016-06-05 00:10:00,2174E-3,5C000400,-0724,0829,12194,029.4,045.5,0.253,755.2,01.16,0.508
2016-06-05 00:11:00,2090E-3,5C000400,-0724,0830,12159,029.4,045.5,0.253,755.3,01.16,0.508
2016-06-05 00:12:00,2090E-3,5C000400,-0724,0830,12174,029.4,045.5,0.253,755.2,01.16,0.508
2016-06-05 00:13:00,2205E-3,5C000400,-0724,0829,12296,029.4,045.5,0.253,755.2,01.16,0.508
2016-06-05 00:14:00,2194E-3,5C000400,-0724,0830,12089,029.4,045.5,0.253,755.2,01.16,0.508
2016-06-05 00:15:00,2051E-3,5C000400,-0724,0830,12193,029.4,045.5,0.252,755.2,01.16,0.508
2016-06-05 00:16:00,2183E-3,5C000400,-0724,0830,12052,029.4,045.5,0.252,755.2,01.16,0.508
2016-06-05 00:17:00,2177E-3,5C000400,-0724,0830,12078,029.4,045.5,0.252,755.3,01.16,0.508
2016-06-05 00:18:00,2202E-3,5C000400,-0724,0830,12222,029.4,045.5,0.252,755.2,01.16,0.508
2016-06-05 00:19:00,2072E-3,5C000400,-0724,0830,12211,029.4,045.5,0.252,755.2,01.16,0.508
2016-06-05 00:20:00,2186E-3,5C000400,-0724,0830,12164,029.4,045.5,0.252,755.2,01.16,0.508
2016-06-05 00:21:00,2184E-3,5C000400,-0724,0830,12243,029.4,045.5,0.252,755.2,01.16,0.508
2016-06-05 00:22:00,2213E-3,5C000400,-0724,0830,12372,029.4,045.5,0.253,755.2,01.16,0.508
2016-06-05 00:23:00,2260E-3,5C000400,-0724,0830,12303,029.4,045.5,0.253,755.2,01.16,0.508
2016-06-05 00:24:00,2136E-3,5C000400,-0724,0829,12218,029.4,045.5,0.253,755.2,01.16,0.508
2016-06-05 00:25:00,2212E-3,5C000400,-0724,0830,12258,029.4,045.5,0.253,755.2,01.16,0.508
2016-06-05 00:26:00,2184E-3,5C000400,-0724,0831,12255,029.4,045.5,0.253,755.2,01.16,0.508
2016-06-05 00:27:00,2092E-3,5C000400,-0724,0829,12272,029.4,045.5,0.253,755.2,01.16,0.508
2016-06-05 00:28:00,2206E-3,5C000400,-0724,0830,12246,029.4,045.5,0.252,755.2,01.16,0.508
2016-06-05 00:29:00,2085E-3,5C000400,-0724,0829,12249,029.4,045.5,0.252,755.2,01.16,0.508
2016-06-05 00:30:00,2234E-3,5C000400,-0724,0830,12162,029.4,045.5,0.252,755.2,01.16,0.508
2016-06-05 00:31:00,2087E-3,5C000400,-0724,0829,12217,029.4,045.5,0.252,755.2,01.16,0.508
2016-06-05 00:32:00,2259E-3,5C000400,-0724,0830,12197,029.4,045.5,0.252,755.2,01.16,0.508
2016-06-05 00:33:00,2370E-3,5C000400,-0724,0829,12176,029.4,045.5,0.252,755.3,01.16,0.508
2016-06-05 00:34:00,2102E-3,5C000400,-0724,0829,12144,029.4,045.5,0.253,755.2,01.16,0.508
2016-06-05 00:35:00,2144E-3,5C000400,-0724,0830,12244,029.4,045.5,0.253,755.2,01.16,0.508
2016-06-05 00:36:00,2210E-3,5C000400,-0724,0830,12134,029.4,045.5,0.253,755.2,01.16,0.508
2016-06-05 00:37:00,2249E-3,5C000400,-0724,0830,12252,029.4,045.5,0.252,755.2,01.16,0.508
2016-06-05 00:38:00,2162E-3,5C000400,-0724,0830,12212,029.4,045.5,0.253,755.3,01.16,0.508
2016-06-05 00:39:00,2225E-3,5C000400,-0724,0830,12153,029.4,045.5,0.253,755.4,01.16,0.508
2016-06-05 00:40:00,2113E-3,5C000400,-0724,0830,12104,029.4,045.5,0.253,755.4,01.16,0.508
2016-06-05 00:41:00,2110E-3,5C000400,-0724,0829,12150,029.4,045.5,0.252,755.4,01.16,0.508
2016-06-05 00:42:00,2081E-3,5C000400,-0724,0829,12357,029.4,045.5,0.253,755.4,01.16,0.508
2016-06-05 00:43:00,2206E-3,5C000400,-0724,0830,12225,029.4,045.5,0.252,755.4,01.16,0.508
2016-06-05 00:44:00,2236E-3,5C000400,-0724,0830,12218,029.4,045.5,0.252,755.4,01.16,0.508
2016-06-05 00:45:00,2207E-3,5C000400,-0724,0829,12117,029.4,045.5,0.252,755.3,01.16,0.508
2016-06-05 00:46:00,2123E-3,5C000400,-0724,0831,12168,029.4,045.5,0.252,755.3,01.16,0.508
2016-06-05 00:47:00,2116E-3,5C000400,-0724,0830,12074,029.4,045.5,0.253,755.4,01.16,0.508
2016-06-05 00:48:00,2166E-3,5C000400,-0724,0830,12228,029.4,045.5,0.253,755.3,01.16,0.508
2016-06-05 00:49:00,2176E-3,5C000400,-0724,0830,12189,029.4,045.5,0.253,755.2,01.16,0.508
2016-06-05 00:50:00,2184E-3,5C000400,-0724,0829,12208,029.4,045.5,0.253,755.2,01.16,0.508
2016-06-05 00:51:00,2154E-3,5C000400,-0724,0830,12267,029.4,045.5,0.253,755.2,01.16,0.508
2016-06-05 00:52:00,2014E-3,5C000400,-0724,0830,12222,029.4,045.5,0.252,755.1,01.16,0.508
2016-06-05 00:53:00,2118E-3,5C000400,-0724,0829,12344,029.4,045.5,0.252,755.2,01.16,0.508
2016-06-05 00:54:00,2138E-3,5C000400,-0724,0830,12186,029.4,045.5,0.252,755.1,01.16,0.508
2016-06-05 00:55:00,2213E-3,5C000400,-0724,0830,12205,029.4,045.5,0.252,755.1,01.16,0.508
2016-06-05 00:56:00,2187E-3,5C000400,-0724,0830,12042,029.4,045.5,0.252,755.0,01.17,0.508
2016-06-05 00:57:00,2179E-3,5C000400,-0724,0830,12141,029.4,045.5,0.253,755.0,01.17,0.508
2016-06-05 00:58:00,2176E-3,5C000400,-0724,0830,12110,029.4,045.5,0.253,755.1,01.16,0.508
2016-06-05 00:59:00,2200E-3,5C000400,-0724,0830,12215,029.4,045.5,0.253,755.0,01.17,0.508
2016-06-05 01:00:00,2119E-3,5C000400,-0724,0830,12244,029.4,045.5,0.253,755.0,01.17,0.508
2016-06-05 01:01:00,2081E-3,5C000400,-0724,0830,12110,029.4,045.5,0.252,755.0,01.17,0.508
2016-06-05 01:02:00,2176E-3,5C000400,-0724,0829,12178,029.4,045.5,0.252,755.0,01.17,0.508
2016-06-05 01:03:00,2157E-3,5C000400,-0724,0829,12242,029.4,045.5,0.252,755.0,01.17,0.508
2016-06-05 01:04:00,2115E-3,5C000400,-0724,0830,12183,029.5,045.5,0.252,755.1,01.16,0.508
2016-06-05 01:05:00,2265E-3,5C000400,-0724,0830,12173,029.4,045.5,0.252,755.0,01.17,0.508
2016-06-05 01:06:00,2243E-3,5C000400,-0724,0829,12109,029.4,045.5,0.252,755.1,01.16,0.508
2016-06-05 01:07:00,2157E-3,5C000400,-0724,0829,12203,029.5,045.5,0.252,755.1,01.16,0.508
2016-06-05 01:08:00,2086E-3,5C000400,-0724,0829,12291,029.5,045.5,0.252,755.2,01.16,0.508
2016-06-05 01:09:00,2221E-3,5C000400,-0724,0830,12368,029.4,045.5,0.253,755.2,01.16,0.508
2016-06-05 01:10:00,2205E-3,5C000400,-0724,0829,12073,029.5,045.5,0.253,755.3,01.16,0.508
2016-06-05 01:11:00,2040E-3,5C000400,-0724,0830,12240,029.4,045.5,0.253,755.3,01.16,0.508
2016-06-05 01:12:00,2117E-3,5C000400,-0724,0829,12255,029.4,045.5,0.252,755.2,01.16,0.508
2016-06-05 01:13:00,2231E-3,5C000400,-0724,0829,12192,029.4,045.5,0.252,755.3,01.16,0.508
2016-06-05 01:14:00,2129E-3,5C000400,-0724,0829,12113,029.4,045.5,0.252,755.3,01.16,0.508
2016-06-05 01:15:00,2139E-3,5C000400,-0724,0829,12224,029.4,045.5,0.252,755.4,01.16,0.508
2016-06-05 01:16:00,1938E-3,5C000400,-0724,0829,12189,029.4,045.5,0.252,755.4,01.16,0.508
2016-06-05 01:17:00,2183E-3,5C000400,-0724,0830,12151,029.5,045.5,0.252,755.4,01.16,0.508
2016-06-05 01:18:00,2218E-3,5C000400,-0724,0830,12240,029.5,045.5,0.252,755.4,01.16,0.508
2016-06-05 01:19:00,2162E-3,5C000400,-0724,0829,12056,029.5,045.5,0.252,755.4,01.16,0.508
2016-06-05 01:20:00,2230E-3,5C000400,-0724,0829,12128,029.5,045.5,0.252,755.4,01.16,0.508
2016-06-05 01:21:00,2018E-3,5C000400,-0724,0830,12209,029.5,045.5,0.253,755.5,01.16,0.508
2016-06-05 01:22:00,2160E-3,5C000400,-0724,0830,12231,029.4,045.5,0.253,755.5,01.16,0.508
2016-06-05 01:23:00,2083E-3,5C000400,-0724,0829,12260,029.5,045.5,0.253,755.5,01.16,0.508
2016-06-05 01:24:00,2126E-3,5C000400,-0724,0830,12181,029.4,045.5,0.252,755.5,01.16,0.508
2016-06-05 01:25:00,2221E-3,5C000400,-0724,0830,12262,029.4,045.5,0.252,755.6,01.16,0.508
2016-06-05 01:26:00,2128E-3,5C000400,-0724,0829,12251,029.4,045.5,0.252,755.5,01.16,0.508
2016-06-05 01:27:00,2148E-3,5C000400,-0724,0829,12016,029.5,045.5,0.252,755.6,01.16,0.508
2016-06-05 01:28:00,2264E-3,5C000400,-0724,0830,12174,029.5,045.5,0.252,755.5,01.16,0.508
2016-06-05 01:29:00,2208E-3,5C000400,-0724,0830,12290,029.5,045.5,0.252,755.6,01.16,0.508
2016-06-05 01:30:00,2055E-3,5C000400,-0724,0830,12131,029.5,045.5,0.252,755.6,01.16,0.508
2016-06-05 01:31:00,2362E-3,5C000400,-0724,0830,12227,029.5,045.5,0.252,755.6,01.16,0.508
2016-06-05 01:32:00,2311E-3,5C000400,-0724,0830,12329,029.5,045.5,0.253,755.6,01.16,0.508
2016-06-05 01:33:00,2080E-3,5C000400,-0724,0830,12359,029.5,045.5,0.253,755.6,01.16,0.508
2016-06-05 01:34:00,2190E-3,5C000400,-0724,0830,12302,029.5,045.5,0.253,755.6,01.16,0.508
2016-06-05 01:35:00,2034E-3,5C000400,-0724,0830,12222,029.5,045.5,0.253,755.7,01.16,0.508
2016-06-05 01:36:00,2284E-3,5C000400,-0724,0830,12273,029.5,045.5,0.253,755.6,01.16,0.508
2016-06-05 01:37:00,2228E-3,5C000400,-0724,0830,12088,029.5,045.5,0.253,755.7,01.16,0.508
2016-06-05 01:38:00,2177E-3,5C000400,-0724,0830,12216,029.5,045.5,0.252,755.8,01.16,0.508
2016-06-05 01:39:00,2187E-3,5C000400,-0724,0830,12278,029.5,045.5,0.252,755.8,01.16,0.508
2016-06-05 01:40:00,2155E-3,5C000400,-0724,0829,12412,029.5,045.5,0.252,755.8,01.16,0.508
2016-06-05 01:41:00,2342E-3,5C000400,-0724,0830,12192,029.5,045.5,0.252,755.8,01.16,0.508
2016-06-05 01:42:00,2224E-3,5C000400,-0724,0830,12199,029.5,045.5,0.252,755.8,01.16,0.508
2016-06-05 01:43:00,2111E-3,5C000400,-0724,0831,12246,029.5,045.5,0.252,755.7,01.16,0.508
2016-06-05 01:44:00,2183E-3,5C000400,-0724,0830,12238,029.5,045.5,0.252,755.7,01.16,0.508
2016-06-05 01:45:00,2151E-3,5C000400,-0724,0830,12208,029.5,045.5,0.252,755.7,01.16,0.508
2016-06-05 01:46:00,2261E-3,5C000400,-0724,0830,12157,029.5,045.5,0.253,755.7,01.16,0.508
2016-06-05 01:47:00,2226E-3,5C000400,-0724,0830,12302,029.5,045.5,0.253,755.7,01.16,0.508
2016-06-05 01:48:00,2133E-3,5C000400,-0724,0829,12096,029.5,045.5,0.252,755.7,01.16,0.508
2016-06-05 01:49:00,2188E-3,5C000400,-0724,0829,12310,029.5,045.5,0.252,755.6,01.16,0.508
2016-06-05 01:50:00,2077E-3,5C000400,-0724,0829,12175,029.5,045.5,0.252,755.7,01.16,0.508
2016-06-05 01:51:00,2262E-3,5C000400,-0724,0829,12174,029.5,045.5,0.252,755.7,01.16,0.508
2016-06-05 01:52:00,2183E-3,5C000400,-0724,0829,12222,029.5,045.5,0.252,755.8,01.16,0.508
2016-06-05 01:53:00,2194E-3,5C000400,-0724,0829,12068,029.5,045.5,0.252,755.7,01.16,0.508
2016-06-05 01:54:00,2207E-3,5C000400,-0724,0829,12210,029.5,045.5,0.252,755.7,01.16,0.508
2016-06-05 01:55:00,2073E-3,5C000400,-0724,0830,12155,029.5,045.5,0.252,755.8,01.16,0.508
2016-06-05 01:56:00,2200E-3,5C000400,-0724,0831,12209,029.5,045.5,0.252,755.7,01.16,0.508
2016-06-05 01:57:00,2084E-3,5C000400,-0724,0830,12089,029.5,045.5,0.252,755.7,01.16,0.508
2016-06-05 01:58:00,2197E-3,5C000400,-0724,0830,12250,029.5,045.5,0.252,755.7,01.16,0.508
2016-06-05 01:59:00,2157E-3,5C000400,-0724,0829,12192,029.5,045.5,0.252,755.8,01.16,0.508
2016-06-05 02:00:00,2169E-3,5C000400,-0724,0830,12183,029.5,045.5,0.252,755.6,01.16,0.508
2016-06-05 02:01:00,2326E-3,5C000400,-0724,0830,12314,029.5,045.5,0.252,755.7,01.16,0.508
2016-06-05 02:02:00,2224E-3,5C000400,-0724,0829,12189,029.5,045.5,0.252,755.7,01.16,0.508
2016-06-05 02:03:00,2396E-3,5C000400,-0724,0829,12167,029.5,045.5,0.252,755.7,01.16,0.508
2016-06-05 02:04:00,2259E-3,5C000400,-0724,0830,12136,029.5,045.5,0.252,755.8,01.16,0.508
2016-06-05 02:05:00,2122E-3,5C000400,-0724,0830,12202,029.6,045.5,0.252,755.8,01.16,0.508
2016-06-05 02:06:00,2257E-3,5C000400,-0724,0829,12229,029.5,045.5,0.252,755.7,01.16,0.508
2016-06-05 02:07:00,2161E-3,5C000400,-0724,0829,12300,029.5,045.5,0.252,755.8,01.16,0.508
2016-06-05 02:08:00,2136E-3,5C000400,-0724,0830,12151,029.5,045.5,0.252,755.8,01.16,0.508
2016-06-05 02:09:00,2252E-3,5C000400,-0724,0830,12149,029.5,045.5,0.252,755.8,01.16,0.508
2016-06-05 02:10:00,2246E-3,5C000400,-0724,0829,12211,029.5,045.5,0.252,755.8,01.16,0.508
2016-06-05 02:11:00,2115E-3,5C000400,-0724,0829,12164,029.5,045.5,0.252,755.8,01.16,0.508
2016-06-05 02:12:00,2145E-3,5C000400,-0724,0829,12127,029.6,045.5,0.252,755.9,01.16,0.508
2016-06-05 02:13:00,2110E-3,5C000400,-0724,0829,12292,029.6,045.5,0.252,755.8,01.16,0.508
2016-06-05 02:14:00,2308E-3,5C000400,-0724,0831,12261,029.6,045.5,0.252,755.9,01.16,0.508
2016-06-05 02:15:00,2151E-3,5C000400,-0724,0830,12235,029.5,045.5,0.252,755.9,01.16,0.508
2016-06-05 02:16:00,2202E-3,5C000400,-0724,0830,12054,029.5,045.5,0.252,755.9,01.16,0.508
2016-06-05 02:17:00,2136E-3,5C000400,-0724,0830,12224,029.6,045.5,0.252,755.9,01.16,0.508
2016-06-05 02:18:00,2327E-3,5C000400,-0724,0830,12067,029.6,045.5,0.252,755.9,01.16,0.508
2016-06-05 02:19:00,2309E-3,5C000400,-0724,0830,12299,029.6,045.5,0.252,755.9,01.16,0.508
2016-06-05 02:20:00,2088E-3,5C000400,-0724,0829,12120,029.6,045.5,0.252,755.9,01.16,0.508
2016-06-05 02:21:00,2116E-3,5C000400,-0724,0830,12265,029.6,045.5,0.252,755.9,01.16,0.508
2016-06-05 02:22:00,2220E-3,5C000400,-0724,0830,12073,029.6,045.5,0.252,755.8,01.16,0.508
2016-06-05 02:23:00,2081E-3,5C000400,-0724,0830,12191,029.6,045.5,0.252,755.9,01.16,0.508
2016-06-05 02:24:00,2272E-3,5C000400,-0724,0829,12084,029.6,045.5,0.252,755.9,01.16,0.508
2016-06-05 02:25:00,2151E-3,5C000400,-0724,0830,12251,029.6,045.5,0.252,755.9,01.16,0.508
2016-06-05 02:26:00,2222E-3,5C000400,-0724,0830,12056,029.6,045.5,0.252,755.9,01.16,0.508
2016-06-05 02:27:00,2198E-3,5C000400,-0724,0829,12043,029.6,045.5,0.252,756.0,01.16,0.508
2016-06-05 02:28:00,2250E-3,5C000400,-0724,0830,12220,029.6,045.5,0.252,755.9,01.16,0.508
2016-06-05 02:29:00,2238E-3,5C000400,-0724,0830,12288,029.6,045.5,0.252,755.9,01.16,0.508
2016-06-05 02:30:00,2217E-3,5C000400,-0724,0830,12322,029.6,045.5,0.252,755.9,01.16,0.508
2016-06-05 02:31:00,2222E-3,5C000400,-0724,0830,12212,029.6,045.5,0.252,755.9,01.16,0.508
2016-06-05 02:32:00,2064E-3,5C000400,-0724,0831,12180,029.6,045.5,0.252,756.0,01.16,0.508
2016-06-05 02:33:00,2214E-3,5C000400,-0724,0829,12334,029.6,045.5,0.252,755.9,01.16,0.508
2016-06-05 02:34:00,2279E-3,5C000400,-0724,0830,12197,029.6,045.5,0.253,755.9,01.16,0.508
2016-06-05 02:35:00,2223E-3,5C000400,-0724,0830,12188,029.6,045.5,0.253,755.8,01.16,0.508
2016-06-05 02:36:00,2275E-3,5C000400,-0724,0829,12227,029.6,045.5,0.253,755.9,01.16,0.508
2016-06-05 02:37:00,2276E-3,5C000400,-0724,0830,12351,029.6,045.5,0.253,755.9,01.16,0.508
2016-06-05 02:38:00,2116E-3,5C000400,-0724,0830,12084,029.6,045.5,0.252,755.8,01.16,0.508
2016-06-05 02:39:00,2319E-3,5C000400,-0724,0829,12226,029.6,045.5,0.252,755.9,01.16,0.508
2016-06-05 02:40:00,2258E-3,5C000400,-0724,0830,12159,029.6,045.5,0.252,755.9,01.16,0.508
2016-06-05 02:41:00,2181E-3,5C000400,-0724,0830,12247,029.6,045.5,0.252,755.9,01.16,0.508
2016-06-05 02:42:00,2048E-3,5C000400,-0724,0830,12250,029.6,045.5,0.252,756.0,01.16,0.508
2016-06-05 02:43:00,2137E-3,5C000400,-0724,0830,12415,029.6,045.5,0.252,756.0,01.16,0.508
2016-06-05 02:44:00,2197E-3,5C000400,-0724,0830,12257,029.6,045.5,0.252,755.9,01.16,0.508
2016-06-05 02:45:00,2257E-3,5C000400,-0724,0830,12244,029.6,045.5,0.252,756.0,01.16,0.508
2016-06-05 02:46:00,2155E-3,5C000400,-0724,0830,12142,029.6,045.5,0.252,756.0,01.16,0.508
2016-06-05 02:47:00,2144E-3,5C000400,-0724,0830,12146,029.6,045.5,0.252,756.0,01.16,0.508
2016-06-05 02:48:00,2158E-3,5C000400,-0724,0830,12155,029.6,045.5,0.252,756.1,01.16,0.508
2016-06-05 02:49:00,2279E-3,5C000400,-0724,0829,12213,029.6,045.5,0.252,756.1,01.16,0.508
2016-06-05 02:50:00,2195E-3,5C000400,-0724,0830,12155,029.6,045.5,0.252,756.2,01.16,0.508
2016-06-05 02:51:00,2224E-3,5C000400,-0724,0831,12239,029.6,045.5,0.252,756.2,01.16,0.508
2016-06-05 02:52:00,2181E-3,5C000400,-0724,0830,12135,029.6,045.5,0.252,756.2,01.16,0.508
2016-06-05 02:53:00,2241E-3,5C000400,-0724,0830,12318,029.6,045.5,0.252,756.2,01.16,0.508
2016-06-05 02:54:00,2186E-3,5C000400,-0724,0830,12269,029.6,045.5,0.252,756.2,01.16,0.508
2016-06-05 02:55:00,2227E-3,5C000400,-0724,0829,12277,029.6,045.5,0.252,756.2,01.16,0.508
2016-06-05 02:56:00,2320E-3,5C000400,-0724,0829,12154,029.6,045.5,0.252,756.2,01.16,0.508
2016-06-05 02:57:00,2188E-3,5C000400,-0724,0830,12063,029.6,045.5,0.252,756.2,01.16,0.508
2016-06-05 02:58:00,2285E-3,5C000400,-0724,0830,12159,029.6,045.5,0.252,756.2,01.16,0.508
2016-06-05 02:59:00,2236E-3,5C000400,-0724,0830,12214,029.6,045.5,0.252,756.2,01.16,0.508
2016-06-05 03:00:00,2268E-3,5C000400,-0724,0830,12148,029.6,045.5,0.252,756.2,01.16,0.508
2016-06-05 03:01:00,2189E-3,5C000400,-0724,0830,12081,029.6,045.5,0.252,756.2,01.16,0.508
2016-06-05 03:02:00,2216E-3,5C000400,-0724,0830,12194,029.6,045.5,0.252,756.2,01.16,0.508
2016-06-05 03:03:00,2222E-3,5C000400,-0724,0830,12155,029.6,045.5,0.252,756.1,01.16,0.508
2016-06-05 03:04:00,2076E-3,5C000400,-0724,0830,12073,029.6,045.5,0.252,756.3,01.16,0.508
2016-06-05 03:05:00,2220E-3,5C000400,-0724,0830,12230,029.6,045.5,0.252,756.2,01.16,0.508
2016-06-05 03:06:00,2236E-3,5C000400,-0724,0830,12232,029.6,045.5,0.252,756.3,01.16,0.508
2016-06-05 03:07:00,2071E-3,5C000400,-0724,0831,12120,029.6,045.5,0.252,756.4,01.16,0.508
2016-06-05 03:08:00,2144E-3,5C000400,-0724,0830,12126,029.6,045.5,0.252,756.3,01.16,0.508
2016-06-05 03:09:00,2184E-3,5C000400,-0724,0830,12206,029.6,045.5,0.252,756.3,01.16,0.508
2016-06-05 03:10:00,2168E-3,5C000400,-0724,0830,12251,029.6,045.5,0.252,756.3,01.16,0.508
2016-06-05 03:11:00,2280E-3,5C000400,-0724,0829,12223,029.6,045.5,0.252,756.3,01.16,0.508
2016-06-05 03:12:00,2422E-3,5C000400,-0724,0830,12097,029.6,045.5,0.252,756.3,01.16,0.508
2016-06-05 03:13:00,2145E-3,5C000400,-0724,0830,12108,029.6,045.5,0.252,756.3,01.16,0.508
2016-06-05 03:14:00,2152E-3,5C000400,-0724,0830,12206,029.6,045.5,0.252,756.4,01.16,0.508
2016-06-05 03:15:00,2185E-3,5C000400,-0724,0830,12116,029.6,045.5,0.252,756.3,01.16,0.508
2016-06-05 03:16:00,2153E-3,5C000400,-0724,0830,12150,029.6,045.5,0.252,756.3,01.16,0.508
2016-06-05 03:17:00,2216E-3,5C000400,-0724,0830,12105,029.6,045.5,0.252,756.3,01.16,0.508
2016-06-05 03:18:00,2076E-3,5C000400,-0724,0830,12082,029.6,045.5,0.252,756.3,01.16,0.508
2016-06-05 03:19:00,2200E-3,5C000400,-0724,0830,12283,029.6,045.5,0.252,756.3,01.16,0.508
2016-06-05 03:20:00,2079E-3,5C000400,-0724,0830,12272,029.6,045.5,0.252,756.4,01.16,0.508
2016-06-05 03:21:00,2155E-3,5C000400,-0724,0831,12177,029.6,045.5,0.252,756.4,01.16,0.508
2016-06-05 03:22:00,2218E-3,5C000400,-0724,0830,12077,029.6,045.5,0.252,756.4,01.16,0.508
2016-06-05 03:23:00,2157E-3,5C000400,-0724,0830,12109,029.6,045.5,0.252,756.4,01.16,0.508
2016-06-05 03:24:00,2241E-3,5C000400,-0724,0830,12065,029.6,045.5,0.252,756.4,01.16,0.508
2016-06-05 03:25:00,2099E-3,5C000400,-0724,0830,12276,029.6,045.5,0.252,756.3,01.16,0.508
2016-06-05 03:26:00,2202E-3,5C000400,-0724,0830,12181,029.6,045.5,0.252,756.4,01.16,0.508
2016-06-05 03:27:00,2103E-3,5C000400,-0724,0830,12162,029.6,045.5,0.252,756.5,01.16,0.508
2016-06-05 03:28:00,2167E-3,5C000400,-0724,0830,12299,029.6,045.5,0.252,756.4,01.16,0.508
2016-06-05 03:29:00,2115E-3,5C000400,-0724,0831,12299,029.6,045.5,0.252,756.4,01.16,0.508
2016-06-05 03:30:00,2175E-3,5C000400,-0724,0830,12205,029.6,045.5,0.252,756.5,01.16,0.508
2016-06-05 03:31:00,2133E-3,5C000400,-0724,0830,12257,029.6,045.5,0.252,756.5,01.16,0.508
2016-06-05 03:32:00,2161E-3,5C000400,-0724,0830,12242,029.6,045.5,0.252,756.5,01.16,0.508
2016-06-05 03:33:00,2063E-3,5C000400,-0724,0830,12156,029.6,045.5,0.252,756.5,01.16,0.508
2016-06-05 03:34:00,2143E-3,5C000400,-0724,0830,12283,029.6,045.5,0.252,756.5,01.16,0.508
2016-06-05 03:35:00,2247E-3,5C000400,-0724,0830,12152,029.6,045.5,0.252,756.5,01.16,0.508
2016-06-05 03:36:00,2232E-3,5C000400,-0724,0829,12127,029.6,045.5,0.252,756.6,01.16,0.508
2016-06-05 03:37:00,2127E-3,5C000400,-0724,0831,12143,029.6,045.5,0.252,756.6,01.16,0.508
2016-06-05 03:38:00,2186E-3,5C000400,-0724,0831,12198,029.6,045.5,0.252,756.6,01.16,0.508
2016-06-05 03:39:00,2154E-3,5C000400,-0724,0830,12144,029.6,045.5,0.252,756.6,01.16,0.508
2016-06-05 03:40:00,2167E-3,5C000400,-0724,0830,12307,029.6,045.5,0.252,756.7,01.16,0.508
2016-06-05 03:41:00,2118E-3,5C000400,-0724,0830,12257,029.6,045.5,0.252,756.6,01.16,0.508
2016-06-05 03:42:00,2189E-3,5C000400,-0724,0830,11999,029.6,045.5,0.252,756.7,01.16,0.508
2016-06-05 03:43:00,2177E-3,5C000400,-0724,0830,12291,029.6,045.5,0.252,756.6,01.16,0.508
2016-06-05 03:44:00,2158E-3,5C000400,-0724,0830,12127,029.7,045.5,0.252,756.6,01.16,0.508
2016-06-05 03:45:00,2080E-3,5C000400,-0724,0830,12150,029.6,045.5,0.252,756.7,01.16,0.508
2016-06-05 03:46:00,2099E-3,5C000400,-0724,0829,12142,029.6,045.5,0.252,756.7,01.16,0.508
2016-06-05 03:47:00,2284E-3,5C000400,-0724,0830,12185,029.7,045.5,0.252,756.8,01.16,0.508
2016-06-05 03:48:00,2133E-3,5C000400,-0724,0830,12302,029.6,045.5,0.252,756.7,01.16,0.508
2016-06-05 03:49:00,2067E-3,5C000400,-0724,0830,12199,029.6,045.5,0.252,756.7,01.16,0.508
2016-06-05 03:50:00,2169E-3,5C000400,-0724,0830,12049,029.6,045.5,0.252,756.7,01.16,0.508
2016-06-05 03:51:00,2124E-3,5C000400,-0724,0829,11990,029.6,045.5,0.252,756.8,01.16,0.508
2016-06-05 03:52:00,2153E-3,5C000400,-0724,0830,12338,029.7,045.5,0.252,756.8,01.16,0.508
2016-06-05 03:53:00,2253E-3,5C000400,-0724,0830,12120,029.6,045.5,0.252,756.8,01.16,0.508
2016-06-05 03:54:00,2194E-3,5C000400,-0724,0830,12106,029.6,045.5,0.252,756.8,01.16,0.508
2016-06-05 03:55:00,2161E-3,5C000400,-0724,0830,12230,029.6,045.5,0.252,756.8,01.16,0.508
2016-06-05 03:56:00,2158E-3,5C000400,-0724,0830,12145,029.6,045.5,0.252,756.8,01.16,0.508
2016-06-05 03:57:00,2211E-3,5C000400,-0724,0830,12288,029.7,045.5,0.252,756.8,01.16,0.508
2016-06-05 03:58:00,2239E-3,5C000400,-0724,0830,12182,029.6,045.5,0.252,756.8,01.16,0.508
2016-06-05 03:59:00,2308E-3,5C000400,-0724,0830,12213,029.6,045.5,0.252,756.8,01.16,0.508
2016-06-05 04:00:00,2196E-3,5C000400,-0724,0830,12187,029.6,045.5,0.252,756.8,01.16,0.508
2016-06-05 04:01:00,2206E-3,5C000400,-0724,0829,12283,029.6,045.5,0.252,756.8,01.16,0.508
2016-06-05 04:02:00,2207E-3,5C000400,-0724,0829,12160,029.6,045.5,0.252,756.8,01.16,0.508
2016-06-05 04:03:00,2206E-3,5C000400,-0724,0830,12286,029.6,045.5,0.252,756.8,01.16,0.508
2016-06-05 04:04:00,2156E-3,5C000400,-0724,0830,12208,029.6,045.5,0.252,756.8,01.16,0.508
2016-06-05 04:05:00,2241E-3,5C000400,-0724,0829,12120,029.6,045.5,0.252,756.8,01.16,0.508
2016-06-05 04:06:00,2132E-3,5C000400,-0724,0830,12009,029.6,045.5,0.252,756.8,01.16,0.508
2016-06-05 04:07:00,2243E-3,5C000400,-0724,0830,12172,029.7,045.5,0.252,756.8,01.16,0.508
2016-06-05 04:08:00,2353E-3,5C000400,-0724,0831,12251,029.7,045.5,0.252,756.8,01.16,0.508
2016-06-05 04:09:00,2205E-3,5C000400,-0724,0830,12258,029.7,045.5,0.252,756.8,01.16,0.508
2016-06-05 04:10:00,2156E-3,5C000400,-0724,0830,12078,029.6,045.5,0.252,756.8,01.16,0.508
2016-06-05 04:11:00,2134E-3,5C000400,-0724,0830,12226,029.6,045.5,0.252,756.9,01.16,0.508
2016-06-05 04:12:00,2240E-3,5C000400,-0724,0830,12288,029.6,045.5,0.252,756.9,01.16,0.508
2016-06-05 04:13:00,2201E-3,5C000400,-0724,0830,12117,029.6,045.5,0.252,756.9,01.16,0.508
2016-06-05 04:14:00,2038E-3,5C000400,-0724,0830,12192,029.6,045.5,0.252,756.9,01.16,0.508
2016-06-05 04:15:00,2088E-3,5C000400,-0724,0830,12148,029.6,045.5,0.252,756.9,01.16,0.508
2016-06-05 04:16:00,2118E-3,5C000400,-0724,0830,12163,029.6,045.5,0.252,756.9,01.16,0.508
2016-06-05 04:17:00,2072E-3,5C000400,-0724,0830,11918,029.6,045.5,0.252,756.9,01.16,0.508
2016-06-05 04:18:00,2327E-3,5C000400,-0724,0830,12254,029.6,045.5,0.252,756.9,01.16,0.508
2016-06-05 04:19:00,2254E-3,5C000400,-0724,0830,12155,029.6,045.5,0.252,756.9,01.16,0.508
2016-06-05 04:20:00,2083E-3,5C000400,-0724,0830,12166,029.6,045.5,0.252,757.0,01.16,0.508